Change the Weather History Date:

Wednesday, February 27, 2013

  Actual Average Record
Temperature  
Mean Temperature 28 °F -  
Max Temperature 33 °F 30 °F 53 °F (1976)
Min Temperature 24 °F 13 °F -19 °F (1964)
Degree Days  
Heating Degree Days 36    
Moisture  
Dew Point 25 °F    
Average Humidity 82    
Maximum Humidity 93    
Minimum Humidity 70    
Precipitation  
Precipitation 0.00 in - - ()
Sea Level Pressure  
Sea Level Pressure 29.99 in    
Wind  
Wind Speed 14 mph (NNE)    
Max Wind Speed 22 mph    
Max Gust Speed 28 mph    
Visibility 10 miles    
Events      
Averages and records for this station are not official NWS values.
T = Trace of Precipitation, MM = Missing Value Source: NWS Daily Summary

Daily Weather History Graph

Daily Weather History Graph

Search for Another Location

Airport or City:

Trip Planner

Search our weather history database for the weather conditions in past years. The results will help you decide how hot, cold, wet, or windy it might be!

Date:

Astronomy

Feb. 27, 2013 Rise Set
Actual Time 6:50 AM CST 5:51 PM CST
Civil Twilight 6:20 AM CST 6:21 PM CST
Nautical Twilight 5:45 AM CST 6:57 PM CST
Astronomical Twilight 5:10 AM CST 7:32 PM CST
Moon 8:25 PM CST (2/27) 7:16 AM CST (2/27)
Length of Visible Light 12h 01m
Length of Day
11h 00m
Waning Gibbous, 96% of the Moon is Illuminated
Feb 27
Waning Gibbous
Mar 4
Last Quarter
Mar 11
New
Mar 19
First Quarter
Mar 27
Full

Hourly Weather History & Observations

Time (CST) Temp. Windchill Dew Point Humidity Pressure Visibility Wind Dir Wind Speed Gust Speed Precip Events Conditions
12:14 AM 30.2 °F 20.2 °F 26.6 °F 86% 29.97 in 10.0 mi NNE 12.7 mph - N/A   Overcast
12:33 AM 30.2 °F 19.3 °F 26.6 °F 86% 29.97 in 10.0 mi NNE 15.0 mph - N/A   Overcast
12:53 AM 30.2 °F 19.8 °F 26.6 °F 86% 29.97 in 10.0 mi NNE 13.8 mph - N/A   Mostly Cloudy
1:14 AM 28.4 °F 17.5 °F 26.6 °F 93% 29.97 in 10.0 mi NNE 13.8 mph - N/A   Clear
1:34 AM 28.4 °F 18.5 °F 24.8 °F 86% 29.97 in 10.0 mi NNE 11.5 mph - N/A   Scattered Clouds
1:53 AM 28.4 °F 18.0 °F 24.8 °F 86% 29.97 in 10.0 mi NNE 12.7 mph - N/A   Mostly Cloudy
2:14 AM 28.4 °F 17.5 °F 26.6 °F 93% 29.96 in 10.0 mi NNE 13.8 mph - N/A   Overcast
2:33 AM 30.2 °F 19.8 °F 26.6 °F 86% 29.96 in 10.0 mi NNE 13.8 mph - N/A   Overcast
2:53 AM 30.2 °F 19.8 °F 26.6 °F 86% 29.96 in 10.0 mi NNE 13.8 mph - N/A   Overcast
3:13 AM 30.2 °F 19.8 °F 26.6 °F 86% 29.96 in 10.0 mi NNE 13.8 mph - N/A   Overcast
3:33 AM 30.2 °F 19.8 °F 26.6 °F 86% 29.95 in 10.0 mi NNE 13.8 mph - N/A   Scattered Clouds
3:54 AM 30.2 °F 20.2 °F 26.6 °F 86% 29.95 in 10.0 mi North 12.7 mph - N/A   Mostly Cloudy
4:13 AM 28.4 °F 18.5 °F 24.8 °F 86% 29.95 in 10.0 mi North 11.5 mph - N/A   Scattered Clouds
4:33 AM 26.6 °F 16.2 °F 23.0 °F 86% 29.95 in 10.0 mi North 11.5 mph - N/A   Clear
4:54 AM 26.6 °F 15.7 °F 23.0 °F 86% 29.94 in 10.0 mi North 12.7 mph - N/A   Clear
5:13 AM 26.6 °F 16.2 °F 21.2 °F 80% 29.94 in 10.0 mi North 11.5 mph - N/A   Clear
5:33 AM 26.6 °F 16.2 °F 21.2 °F 80% 29.94 in 10.0 mi North 11.5 mph - N/A   Clear
5:54 AM 24.8 °F 14.6 °F 21.2 °F 86% 29.94 in 10.0 mi North 10.4 mph - N/A   Clear
6:13 AM 24.8 °F 14.6 °F 21.2 °F 86% 29.95 in 10.0 mi North 10.4 mph - N/A   Clear
6:33 AM 24.8 °F 14.6 °F 21.2 °F 86% 29.95 in 10.0 mi North 10.4 mph - N/A   Clear
6:54 AM 24.8 °F 14.6 °F 19.4 °F 80% 29.95 in 10.0 mi North 10.4 mph - N/A   Clear
7:13 AM 24.8 °F 15.3 °F 21.2 °F 86% 29.95 in 10.0 mi North 9.2 mph - N/A   Clear
7:33 AM 26.6 °F 16.2 °F 21.2 °F 80% 29.95 in 10.0 mi North 11.5 mph - N/A   Clear
7:54 AM 26.6 °F 15.7 °F 21.2 °F 80% 29.95 in 10.0 mi North 12.7 mph - N/A   Clear
8:13 AM 26.6 °F 15.2 °F 21.2 °F 80% 29.95 in 10.0 mi North 13.8 mph - N/A   Clear
8:33 AM 26.6 °F 15.7 °F 21.2 °F 80% 29.96 in 10.0 mi North 12.7 mph - N/A   Scattered Clouds
9:13 AM 30.2 °F 19.3 °F 24.8 °F 80% 29.96 in 10.0 mi NNE 15.0 mph - N/A   Mostly Cloudy
9:34 AM 30.2 °F 19.3 °F 24.8 °F 80% 29.96 in 10.0 mi NNE 15.0 mph - N/A   Overcast
9:54 AM 30.2 °F 18.9 °F 26.6 °F 86% 29.96 in 10.0 mi NNE 16.1 mph - N/A   Overcast
10:13 AM 30.2 °F 19.8 °F 26.6 °F 86% 29.97 in 10.0 mi NNE 13.8 mph - N/A   Overcast
10:34 AM 30.2 °F 19.8 °F 26.6 °F 86% 29.97 in 10.0 mi NE 13.8 mph 21.9 mph N/A   Overcast
11:13 AM 30.2 °F 17.4 °F 26.6 °F 86% 29.97 in 10.0 mi ENE 20.7 mph - N/A   Overcast
11:34 AM 30.2 °F 17.1 °F 26.6 °F 86% 29.97 in 10.0 mi ENE 21.9 mph 27.6 mph N/A   Overcast
11:53 AM 30.2 °F 17.1 °F 26.6 °F 86% 29.97 in 10.0 mi ENE 21.9 mph - N/A   Overcast
12:13 PM 30.2 °F 18.5 °F 26.6 °F 86% 29.97 in 10.0 mi ENE 17.3 mph - N/A   Overcast
12:34 PM 30.2 °F 18.9 °F 24.8 °F 80% 29.98 in 10.0 mi NE 16.1 mph - N/A   Overcast
12:53 PM 30.2 °F 19.3 °F 26.6 °F 86% 29.97 in 10.0 mi NE 15.0 mph 21.9 mph N/A   Overcast
1:13 PM 30.2 °F 18.1 °F 24.8 °F 80% 29.97 in 10.0 mi NNE 18.4 mph - N/A   Overcast
1:34 PM 30.2 °F 18.1 °F 26.6 °F 86% 29.97 in 10.0 mi NE 18.4 mph 21.9 mph N/A   Overcast
1:53 PM 32.0 °F 19.8 °F 24.8 °F 75% 29.96 in 10.0 mi ENE 20.7 mph - N/A   Mostly Cloudy
2:14 PM 32.0 °F 20.1 °F 26.6 °F 80% 29.97 in 10.0 mi NE 19.6 mph - N/A   Scattered Clouds
2:33 PM 32.0 °F 20.5 °F 26.6 °F 80% 29.97 in 10.0 mi NE 18.4 mph - N/A   Scattered Clouds
2:53 PM 32.0 °F 21.6 °F 24.8 °F 75% 29.98 in 10.0 mi NE 15.0 mph - N/A   Scattered Clouds
3:14 PM 32.0 °F 20.8 °F 24.8 °F 75% 29.98 in 10.0 mi ENE 17.3 mph - N/A   Mostly Cloudy
3:33 PM 32.0 °F 21.2 °F 26.6 °F 80% 29.98 in 10.0 mi ENE 16.1 mph 20.7 mph N/A   Mostly Cloudy
3:54 PM 33.8 °F 23.5 °F 26.6 °F 75% 29.98 in 10.0 mi ENE 16.1 mph - N/A   Clear
4:13 PM 33.8 °F 23.9 °F 26.6 °F 75% 29.99 in 10.0 mi ENE 15.0 mph - N/A   Scattered Clouds
4:33 PM 32.0 °F 22.1 °F 26.6 °F 80% 29.99 in 10.0 mi ENE 13.8 mph - N/A   Scattered Clouds
4:54 PM 32.0 °F 23.6 °F 26.6 °F 80% 30.00 in 10.0 mi ENE 10.4 mph - N/A   Scattered Clouds
5:13 PM 32.0 °F 24.8 °F 26.6 °F 80% 30.00 in 10.0 mi NE 8.1 mph - N/A   Overcast
5:33 PM 32.0 °F 23.6 °F 26.6 °F 80% 30.01 in 10.0 mi NNE 10.4 mph - N/A   Overcast
5:54 PM 32.0 °F 24.8 °F 28.4 °F 87% 30.01 in 10.0 mi NE 8.1 mph - N/A   Overcast
6:13 PM 32.0 °F 25.6 °F 28.4 °F 87% 30.02 in 10.0 mi NNE 6.9 mph - N/A   Overcast
6:34 PM 32.0 °F 25.6 °F 28.4 °F 87% 30.02 in 10.0 mi NNE 6.9 mph - N/A   Overcast
6:53 PM 33.8 °F 23.9 °F 24.8 °F 70% 30.02 in 10.0 mi North 15.0 mph - N/A   Overcast
7:13 PM 33.8 °F 25.3 °F 24.8 °F 70% 30.03 in 10.0 mi NNE 11.5 mph - N/A   Overcast
7:34 PM 32.0 °F 25.6 °F 26.6 °F 80% 30.03 in 10.0 mi North 6.9 mph - N/A   Overcast
7:53 PM 30.2 °F 23.4 °F 26.6 °F 86% 30.04 in 10.0 mi North 6.9 mph - N/A   Overcast
8:13 PM 33.8 °F 23.2 °F 24.8 °F 70% 30.04 in 10.0 mi NNE 17.3 mph - N/A   Overcast
8:33 PM 32.0 °F 21.6 °F 24.8 °F 75% 30.04 in 10.0 mi NNE 15.0 mph - N/A   Overcast
8:53 PM 32.0 °F 20.8 °F 24.8 °F 75% 30.05 in 10.0 mi NNE 17.3 mph - N/A   Overcast
9:13 PM 32.0 °F 22.5 °F 24.8 °F 75% 30.05 in 10.0 mi NNE 12.7 mph - N/A   Overcast
9:33 PM 32.0 °F 21.6 °F 24.8 °F 75% 30.05 in 10.0 mi NNE 15.0 mph - N/A   Overcast
9:54 PM 30.2 °F 20.2 °F 24.8 °F 80% 30.05 in 10.0 mi NNE 12.7 mph - N/A   Overcast
10:13 PM 32.0 °F 20.8 °F 24.8 °F 75% 30.05 in 10.0 mi NNE 17.3 mph - N/A   Overcast
10:33 PM 32.0 °F 20.5 °F 24.8 °F 75% 30.06 in 10.0 mi NNE 18.4 mph - N/A   Overcast
10:54 PM 30.2 °F 18.1 °F 24.8 °F 80% 30.06 in 10.0 mi NNE 18.4 mph - N/A   Overcast
11:13 PM 30.2 °F 18.5 °F 24.8 °F 80% 30.07 in 10.0 mi NNE 17.3 mph - N/A   Overcast
11:33 PM 30.2 °F 19.3 °F 24.8 °F 80% 30.07 in 10.0 mi NNE 15.0 mph - N/A   Overcast